contact:dominique.lefevre@mio.osupytheas.fr, maurice.libes@osupytheas.fr, didier.mallarino@osupytheas.fr
Project:EMSO http://www.emso-fr.org/EMSO-France
Depth: 2436.0 m
Title:EMSO Ligure Ouest : Data MII capteur AQUADOPP
Date,Latitude,Longitude,X_East,Y_North,Z_Up,Amplitude_X,Amplitude_Y,Amplitude_Z,Batterie,SoundSpeed,Heading,Pitch,Roll,Pressure,TIS,Speed,Direction
, degrees North, degrees East, m.s-1, m.s-1,m.s-1, 1, 1, 1, Volt, m.s-1, degree, degree, degree, dbar, degree_C, m.s-1, degree
2022-12-21T00:04:03,42.805,6.029,0.032,-0.045,0.017,101.0,101.0,100.0,13.4,1505.2,336.0,-0.8,1.8,2471.141,13.28,0.055,144.6
2022-12-21T00:07:03,42.805,6.029,0.043,-0.021,0.059,101.0,102.0,100.0,13.4,1505.2,323.6,-0.8,1.8,2471.119,13.28,0.047,116.0
2022-12-21T00:10:03,42.805,6.029,0.023,-0.059,-0.007,101.0,101.0,100.0,13.4,1505.2,329.8,-0.8,1.8,2471.113,13.28,0.063,158.7
2022-12-21T00:13:03,42.805,6.029,0.031,-0.046,0.029,100.0,102.0,101.0,13.3,1505.2,332.2,-0.7,1.8,2471.122,13.28,0.055,146.0
2022-12-21T00:16:03,42.805,6.029,0.021,-0.02,0.028,100.0,102.0,100.0,13.4,1505.2,323.7,-0.8,1.8,2471.094,13.28,0.028,133.6
2022-12-21T00:19:03,42.805,6.029,0.011,-0.032,0.014,101.0,103.0,100.0,13.3,1505.2,337.2,-0.7,1.8,2471.09,13.28,0.033,161.0
2022-12-21T00:22:03,42.805,6.029,0.021,-0.037,0.035,101.0,101.0,100.0,13.4,1505.2,328.4,-0.8,1.8,2471.132,13.28,0.042,150.4
2022-12-21T00:25:03,42.805,6.029,0.022,-0.048,0.005,100.0,101.0,101.0,13.3,1505.2,322.5,-0.8,1.8,2471.116,13.28,0.052,155.4
2022-12-21T00:28:03,42.805,6.029,0.028,-0.025,0.045,100.0,102.0,101.0,13.4,1505.2,328.4,-0.8,1.8,2471.101,13.28,0.037,131.8
2022-12-21T00:31:03,42.805,6.029,0.059,-0.035,0.022,102.0,102.0,100.0,13.4,1505.2,317.0,-0.7,1.8,2471.052,13.28,0.068,120.7
2022-12-21T00:34:03,42.805,6.029,0.041,-0.04,0.023,102.0,102.0,100.0,13.4,1505.2,330.7,-0.7,1.8,2471.098,13.28,0.057,134.3
2022-12-21T00:37:03,42.805,6.029,0.04,-0.045,-0.005,100.0,103.0,101.0,13.4,1505.2,322.9,-0.8,1.8,2471.074,13.28,0.06,138.4
2022-12-21T00:40:03,42.805,6.029,0.032,-0.037,0.001,100.0,102.0,102.0,13.4,1505.2,322.3,-0.8,1.8,2471.093,13.28,0.048,139.1
2022-12-21T00:43:03,42.805,6.029,0.015,-0.032,0.002,99.0,103.0,101.0,13.4,1505.2,324.9,-0.8,1.8,2471.107,13.28,0.035,154.9
2022-12-21T00:46:03,42.805,6.029,0.027,-0.035,0.037,101.0,102.0,100.0,13.4,1505.2,331.7,-0.8,1.8,2471.122,13.28,0.044,142.3
2022-12-21T00:49:03,42.805,6.029,0.059,-0.041,0.028,100.0,102.0,101.0,13.4,1505.2,328.6,-0.7,1.8,2471.11,13.28,0.071,124.8
2022-12-21T00:52:03,42.805,6.029,0.045,-0.024,0.054,102.0,102.0,100.0,13.3,1505.2,333.0,-0.8,1.8,2471.14,13.28,0.051,118.1
2022-12-21T00:55:03,42.805,6.029,0.101,-0.026,0.061,100.0,103.0,100.0,13.4,1505.2,324.4,-0.8,1.8,2471.137,13.28,0.104,104.4
2022-12-21T00:58:03,42.805,6.029,0.046,-0.025,0.031,101.0,103.0,101.0,13.4,1505.2,324.4,-0.8,1.8,2471.12,13.28,0.052,118.5
2022-12-21T01:04:03,42.805,6.029,0.018,-0.032,0.017,102.0,104.0,101.0,13.3,1505.2,320.8,-0.7,1.8,2471.173,13.28,0.036,150.6
2022-12-21T01:07:02,42.805,6.029,0.007,-0.013,0.032,100.0,104.0,101.0,13.3,1505.2,331.0,-0.8,1.8,2471.183,13.28,0.014,151.7
2022-12-21T01:10:03,42.805,6.029,0.04,-0.039,0.019,101.0,102.0,100.0,13.4,1505.2,320.3,-0.8,1.8,2471.193,13.28,0.055,134.3
2022-12-21T01:13:03,42.805,6.029,0.032,-0.019,0.022,101.0,102.0,101.0,13.3,1505.2,321.9,-0.8,1.8,2471.186,13.28,0.037,120.7
2022-12-21T01:16:03,42.805,6.029,0.019,-0.032,0.012,101.0,101.0,100.0,13.4,1505.2,321.8,-0.8,1.8,2471.149,13.28,0.037,149.3
2022-12-21T01:19:03,42.805,6.029,0.032,-0.029,0.019,100.0,104.0,101.0,13.4,1505.2,324.2,-0.7,1.8,2471.185,13.28,0.043,132.2
2022-12-21T01:22:03,42.805,6.029,0.038,-0.014,0.022,102.0,103.0,100.0,13.4,1505.2,331.5,-0.8,1.8,2471.132,13.28,0.04,110.2
2022-12-21T01:25:03,42.805,6.029,0.016,-0.03,0.019,100.0,102.0,100.0,13.4,1505.2,329.9,-0.8,1.8,2471.135,13.28,0.034,151.9
2022-12-21T01:28:03,42.805,6.029,0.044,-0.043,0.035,101.0,103.0,100.0,13.4,1505.2,329.3,-0.8,1.8,2471.169,13.28,0.061,134.3
2022-12-21T01:31:03,42.805,6.029,0.052,-0.048,-0.016,99.0,103.0,101.0,13.4,1505.2,318.9,-0.7,1.8,2471.157,13.28,0.07,132.7
2022-12-21T01:34:03,42.805,6.029,0.02,-0.026,0.054,99.0,102.0,101.0,13.4,1505.2,330.6,-0.8,1.8,2471.156,13.28,0.032,142.4
2022-12-21T01:37:03,42.805,6.029,0.035,-0.031,-0.002,100.0,103.0,100.0,13.4,1505.2,330.2,-0.8,1.9,2471.194,13.28,0.046,131.5
2022-12-21T01:40:03,42.805,6.029,0.044,-0.029,0.011,100.0,102.0,101.0,13.4,1505.2,316.9,-0.8,1.8,2471.111,13.28,0.052,123.4
2022-12-21T01:43:03,42.805,6.029,0.032,-0.023,0.019,100.0,101.0,101.0,13.4,1505.2,323.7,-0.8,1.8,2471.161,13.28,0.039,125.7
2022-12-21T01:46:03,42.805,6.029,0.001,-0.025,-0.016,100.0,102.0,101.0,13.4,1505.2,323.2,-0.8,1.8,2471.127,13.28,0.025,177.7
2022-12-21T01:49:03,42.805,6.029,0.032,-0.04,0.016,102.0,102.0,100.0,13.3,1505.2,330.2,-0.7,1.8,2471.168,13.28,0.051,141.3
2022-12-21T01:52:03,42.805,6.029,0.022,-0.016,0.034,100.0,101.0,101.0,13.4,1505.2,322.9,-0.8,1.8,2471.135,13.28,0.027,126.0
2022-12-21T01:55:03,42.805,6.029,0.036,-0.012,0.044,98.0,103.0,101.0,13.4,1505.2,331.6,-0.8,1.8,2471.155,13.28,0.037,108.4
2022-12-21T01:58:03,42.805,6.029,0.007,-0.053,-0.044,100.0,102.0,100.0,13.4,1505.2,325.5,-0.7,1.8,2471.143,13.28,0.053,172.5
2022-12-21T02:04:03,42.805,6.029,0.03,-0.01,0.037,101.0,102.0,100.0,13.4,1505.2,323.4,-0.7,1.8,2471.174,13.28,0.031,108.4
2022-12-21T02:07:03,42.805,6.029,0.038,-0.032,0.004,101.0,102.0,100.0,13.4,1505.2,321.6,-0.7,1.8,2471.168,13.28,0.049,130.1
2022-12-21T02:10:03,42.805,6.029,0.013,-0.032,-0.009,100.0,102.0,101.0,13.4,1505.2,332.3,-0.7,1.8,2471.225,13.28,0.034,157.9
2022-12-21T02:13:03,42.805,6.029,0.015,-0.014,0.022,100.0,102.0,101.0,13.4,1505.2,329.8,-0.8,1.8,2471.196,13.28,0.02,133.0
2022-12-21T02:16:03,42.805,6.029,0.054,-0.052,0.007,100.0,103.0,100.0,13.4,1505.2,335.4,-0.8,1.8,2471.208,13.28,0.074,133.9
2022-12-21T02:19:03,42.805,6.029,0.055,-0.028,0.03,99.0,103.0,101.0,13.4,1505.2,317.0,-0.8,1.8,2471.168,13.28,0.061,117.0
2022-12-21T02:22:03,42.805,6.029,0.034,-0.023,0.04,101.0,103.0,100.0,13.4,1505.2,329.7,-0.8,1.8,2471.213,13.28,0.041,124.1
2022-12-21T02:25:03,42.805,6.029,-0.008,-0.024,-0.014,102.0,102.0,100.0,13.4,1505.2,329.7,-0.7,1.8,2471.178,13.28,0.025,198.4
2022-12-21T02:28:03,42.805,6.029,0.036,-0.044,0.01,101.0,102.0,101.0,13.4,1505.2,334.8,-0.7,1.8,2471.197,13.28,0.056,140.7
2022-12-21T02:31:03,42.805,6.029,0.042,-0.006,0.074,99.0,104.0,102.0,13.4,1505.2,329.2,-0.8,1.8,2471.222,13.28,0.042,98.1
2022-12-21T02:34:03,42.805,6.029,0.037,-0.008,0.025,100.0,104.0,100.0,13.3,1505.2,321.8,-0.8,1.9,2471.242,13.28,0.037,102.2
2022-12-21T02:37:03,42.805,6.029,0.049,-0.036,0.026,100.0,102.0,100.0,13.4,1505.2,327.0,-0.7,1.8,2471.217,13.28,0.06,126.3
2022-12-21T02:40:03,42.805,6.029,-0.004,-0.02,0.011,100.0,103.0,100.0,13.3,1505.2,331.9,-0.8,1.8,2471.215,13.28,0.02,191.3
2022-12-21T02:43:03,42.805,6.029,-0.022,-0.015,0.007,101.0,102.0,101.0,13.3,1505.2,334.2,-0.7,1.8,2471.223,13.28,0.026,235.7
2022-12-21T02:46:03,42.805,6.029,0.023,-0.003,0.052,102.0,101.0,101.0,13.4,1505.2,319.7,-0.8,1.8,2471.246,13.28,0.023,97.4
2022-12-21T02:49:03,42.805,6.029,0.052,-0.018,0.011,100.0,104.0,100.0,13.3,1505.2,323.1,-0.7,1.8,2471.197,13.28,0.055,109.1
2022-12-21T02:52:03,42.805,6.029,0.042,-0.023,0.009,102.0,101.0,100.0,13.4,1505.2,325.3,-0.8,1.8,2471.241,13.28,0.047,118.7
2022-12-21T02:55:03,42.805,6.029,0.056,-0.019,0.028,101.0,104.0,101.0,13.4,1505.2,324.9,-0.8,1.8,2471.256,13.28,0.059,108.7
2022-12-21T02:58:03,42.805,6.029,0.028,-0.02,0.009,101.0,104.0,101.0,13.4,1505.2,323.7,-0.8,1.8,2471.219,13.28,0.034,125.5
2022-12-21T03:04:03,42.805,6.029,0.01,-0.02,-0.009,100.0,102.0,101.0,13.4,1505.2,322.9,-0.8,1.8,2471.272,13.28,0.022,153.4
2022-12-21T03:07:03,42.805,6.029,0.055,-0.019,0.046,100.0,101.0,101.0,13.4,1505.2,322.6,-0.7,1.9,2471.264,13.28,0.058,109.1
2022-12-21T03:10:03,42.805,6.029,0.056,-0.029,0.024,98.0,103.0,102.0,13.4,1505.2,320.7,-0.7,1.8,2471.269,13.28,0.063,117.4
2022-12-21T03:13:03,42.805,6.029,0.04,-0.009,0.029,101.0,104.0,100.0,13.4,1505.2,321.2,-0.8,1.8,2471.257,13.28,0.041,102.7
2022-12-21T03:16:03,42.805,6.029,0.043,-0.033,0.033,100.0,103.0,101.0,13.3,1505.2,333.4,-0.8,1.8,2471.256,13.28,0.054,127.5
2022-12-21T03:19:03,42.805,6.029,0.026,-0.021,0.036,102.0,102.0,100.0,13.4,1505.2,324.7,-0.8,1.8,2471.268,13.28,0.033,128.9
2022-12-21T03:22:03,42.805,6.029,0.0,0.013,0.04,100.0,104.0,100.0,13.4,1505.2,323.2,-0.8,1.8,2471.29,13.28,0.013,0.0
2022-12-21T03:25:03,42.805,6.029,0.027,-0.025,0.015,100.0,102.0,101.0,13.4,1505.2,327.3,-0.8,1.8,2471.265,13.28,0.036,132.8
2022-12-21T03:28:02,42.805,6.029,0.072,-0.009,0.086,101.0,103.0,100.0,13.4,1505.2,334.9,-0.7,1.8,2471.278,13.28,0.072,97.1
2022-12-21T03:31:02,42.805,6.029,0.042,-0.024,0.054,101.0,102.0,101.0,13.4,1505.2,334.8,-0.8,1.8,2471.256,13.28,0.048,119.7
2022-12-21T03:34:02,42.805,6.029,0.042,0.0,0.035,101.0,102.0,101.0,13.4,1505.2,326.5,-0.8,1.8,2471.229,13.28,0.042,90.0
2022-12-21T03:37:02,42.805,6.029,0.031,-0.031,0.0,101.0,102.0,100.0,13.4,1505.2,319.2,-0.8,1.8,2471.272,13.28,0.043,135.0
2022-12-21T03:40:02,42.805,6.029,0.037,-0.028,0.024,101.0,103.0,101.0,13.3,1505.2,333.0,-0.8,1.8,2471.272,13.28,0.046,127.1
2022-12-21T03:43:02,42.805,6.029,0.041,-0.03,0.012,100.0,101.0,101.0,13.4,1505.2,326.3,-0.8,1.8,2471.26,13.28,0.05,126.2
2022-12-21T03:46:03,42.805,6.029,0.037,-0.021,0.019,101.0,102.0,101.0,13.3,1505.2,322.2,-0.7,1.8,2471.241,13.28,0.042,119.6
2022-12-21T03:49:03,42.805,6.029,0.009,-0.036,0.015,100.0,100.0,102.0,13.4,1505.2,329.6,-0.7,1.8,2471.274,13.28,0.037,166.0
2022-12-21T03:52:02,42.805,6.029,0.047,-0.042,-0.006,101.0,102.0,102.0,13.3,1505.2,326.5,-0.8,1.8,2471.274,13.28,0.063,131.8
2022-12-21T03:55:03,42.805,6.029,0.053,-0.033,0.038,99.0,103.0,101.0,13.4,1505.2,335.4,-0.8,1.8,2471.249,13.28,0.062,121.9
2022-12-21T03:58:03,42.805,6.029,0.027,-0.011,0.04,100.0,104.0,101.0,13.3,1505.2,326.1,-0.7,1.8,2471.29,13.28,0.029,112.2
2022-12-21T04:04:02,42.805,6.029,0.046,-0.008,0.028,100.0,104.0,100.0,13.4,1505.2,323.1,-0.8,1.8,2471.314,13.28,0.046,99.9
2022-12-21T04:07:03,42.805,6.029,-0.005,-0.036,-0.019,100.0,102.0,100.0,13.4,1505.2,330.4,-0.8,1.8,2471.319,13.28,0.036,187.9
2022-12-21T04:10:03,42.805,6.029,0.031,-0.023,0.012,100.0,104.0,100.0,13.3,1505.2,334.9,-0.8,1.8,2471.333,13.28,0.038,126.6
2022-12-21T04:13:03,42.805,6.029,0.051,-0.029,0.014,100.0,101.0,100.0,13.4,1505.2,326.3,-0.8,1.9,2471.304,13.28,0.058,119.6
2022-12-21T04:16:03,42.805,6.029,0.059,-0.069,0.03,101.0,103.0,99.0,13.4,1505.2,334.8,-0.8,1.8,2471.326,13.28,0.09,139.5
2022-12-21T04:19:03,42.805,6.029,0.033,-0.01,0.036,101.0,102.0,100.0,13.4,1505.2,316.4,-0.8,1.8,2471.299,13.28,0.034,106.9
2022-12-21T04:22:03,42.805,6.029,0.031,0.003,0.032,100.0,102.0,101.0,13.4,1505.2,321.7,-0.7,1.8,2471.294,13.28,0.031,84.5
2022-12-21T04:25:03,42.805,6.029,0.044,-0.03,0.019,100.0,102.0,100.0,13.4,1505.2,321.5,-0.8,1.8,2471.275,13.28,0.053,124.3
2022-12-21T04:28:03,42.805,6.029,0.071,-0.026,0.054,98.0,104.0,102.0,13.4,1505.2,331.1,-0.8,1.8,2471.323,13.28,0.075,110.1
2022-12-21T04:31:03,42.805,6.029,0.002,-0.019,0.037,100.0,104.0,101.0,13.4,1505.2,328.1,-0.7,1.8,2471.299,13.28,0.019,174.0
2022-12-21T04:34:03,42.805,6.029,0.029,-0.025,0.031,100.0,103.0,101.0,13.4,1505.2,329.3,-0.8,1.8,2471.328,13.28,0.038,130.8
2022-12-21T04:37:03,42.805,6.029,0.038,-0.046,0.008,99.0,103.0,101.0,13.4,1505.2,336.9,-0.8,1.8,2471.29,13.28,0.059,140.4
2022-12-21T04:40:03,42.805,6.029,0.042,-0.02,0.034,100.0,103.0,100.0,13.4,1505.2,327.1,-0.8,1.8,2471.282,13.28,0.046,115.5
2022-12-21T04:43:03,42.805,6.029,0.022,-0.031,0.019,100.0,103.0,100.0,13.4,1505.2,331.1,-0.7,1.8,2471.25,13.28,0.038,144.6
2022-12-21T04:46:03,42.805,6.029,0.026,-0.041,-0.002,100.0,104.0,100.0,13.4,1505.2,337.4,-0.7,1.8,2471.269,13.28,0.048,147.6
2022-12-21T04:49:03,42.805,6.029,0.067,-0.046,0.012,100.0,103.0,101.0,13.3,1505.2,325.6,-0.8,1.8,2471.296,13.28,0.081,124.5
2022-12-21T04:52:03,42.805,6.029,0.021,-0.028,0.049,100.0,104.0,101.0,13.4,1505.2,331.0,-0.8,1.8,2471.311,13.28,0.035,143.1
2022-12-21T04:55:03,42.805,6.029,0.036,-0.029,0.017,99.0,102.0,101.0,13.4,1505.2,326.3,-0.8,1.8,2471.306,13.28,0.046,128.9
2022-12-21T04:58:03,42.805,6.029,0.04,-0.044,-0.027,100.0,104.0,101.0,13.4,1505.2,321.5,-0.8,1.8,2471.308,13.28,0.059,137.7
2022-12-21T05:04:03,42.805,6.029,0.027,-0.026,0.035,100.0,103.0,100.0,13.4,1505.2,327.2,-0.8,1.8,2471.356,13.28,0.037,133.9
2022-12-21T05:07:03,42.805,6.029,0.026,-0.005,0.03,102.0,102.0,100.0,13.4,1505.2,319.3,-0.8,1.8,2471.328,13.28,0.026,100.9
2022-12-21T05:10:03,42.805,6.029,0.029,0.004,0.049,101.0,104.0,100.0,13.4,1505.2,331.0,-0.8,1.8,2471.328,13.28,0.029,82.2
2022-12-21T05:13:03,42.805,6.029,0.068,-0.032,0.036,100.0,103.0,101.0,13.4,1505.2,322.1,-0.7,1.8,2471.305,13.28,0.075,115.2
2022-12-21T05:16:03,42.805,6.029,0.032,-0.033,0.008,100.0,103.0,100.0,13.4,1505.2,334.6,-0.8,1.9,2471.347,13.28,0.045,135.9
2022-12-21T05:19:03,42.805,6.029,0.055,-0.039,0.026,102.0,101.0,100.0,13.4,1505.2,326.3,-0.8,1.8,2471.287,13.28,0.067,125.3
2022-12-21T05:22:03,42.805,6.029,0.063,-0.053,-0.012,100.0,102.0,100.0,13.4,1505.2,317.3,-0.7,1.8,2471.316,13.28,0.082,130.1
2022-12-21T05:25:03,42.805,6.029,0.04,-0.048,0.009,99.0,102.0,100.0,13.4,1505.2,333.4,-0.7,1.8,2471.318,13.28,0.062,140.2
2022-12-21T05:28:03,42.805,6.029,0.028,-0.012,0.045,100.0,103.0,101.0,13.4,1505.2,320.1,-0.7,1.8,2471.298,13.28,0.03,113.2
2022-12-21T05:31:03,42.805,6.029,-0.002,0.018,0.061,100.0,102.0,100.0,13.4,1505.2,321.8,-0.8,1.8,2471.321,13.28,0.018,353.7
2022-12-21T05:34:03,42.805,6.029,0.033,-0.004,0.054,100.0,103.0,101.0,13.4,1505.2,322.4,-0.8,1.8,2471.32,13.28,0.033,96.9
2022-12-21T05:37:03,42.805,6.029,0.024,-0.035,0.019,101.0,103.0,101.0,13.4,1505.2,325.0,-0.8,1.8,2471.302,13.28,0.042,145.6
2022-12-21T05:40:03,42.805,6.029,0.046,-0.039,0.011,100.0,103.0,101.0,13.3,1505.2,325.1,-0.8,1.8,2471.272,13.28,0.06,130.3
2022-12-21T05:43:03,42.805,6.029,0.042,-0.046,0.022,99.0,102.0,100.0,13.4,1505.2,330.5,-0.8,1.8,2471.307,13.28,0.062,137.6
2022-12-21T05:46:03,42.805,6.029,0.046,-0.04,0.014,100.0,102.0,101.0,13.3,1505.2,326.5,-0.7,1.8,2471.287,13.28,0.06,131.0
2022-12-21T05:49:03,42.805,6.029,0.021,-0.018,0.012,100.0,102.0,101.0,13.4,1505.2,332.6,-0.7,1.8,2471.306,13.28,0.027,130.6
2022-12-21T05:52:03,42.805,6.029,0.041,-0.032,0.01,100.0,102.0,101.0,13.3,1505.2,322.7,-0.8,1.8,2471.273,13.28,0.052,128.0
2022-12-21T05:55:03,42.805,6.029,0.043,-0.034,0.004,100.0,102.0,101.0,13.3,1505.2,323.7,-0.8,1.8,2471.292,13.28,0.054,128.3
2022-12-21T05:58:03,42.805,6.029,0.074,-0.022,0.029,100.0,103.0,101.0,13.3,1505.2,317.0,-0.8,1.8,2471.299,13.28,0.077,106.6
2022-12-21T06:04:03,42.805,6.029,0.017,-0.017,0.035,102.0,102.0,100.0,13.4,1505.2,334.1,-0.7,1.8,2471.333,13.28,0.024,135.0
2022-12-21T06:07:03,42.805,6.029,0.04,-0.031,0.027,101.0,103.0,101.0,13.4,1505.2,325.5,-0.8,1.8,2471.311,13.28,0.05,127.8
2022-12-21T06:10:03,42.805,6.029,0.03,-0.015,0.044,100.0,101.0,100.0,13.3,1505.2,329.4,-0.7,1.8,2471.312,13.28,0.033,116.6
2022-12-21T06:13:03,42.805,6.029,0.021,-0.033,0.017,101.0,103.0,99.0,13.3,1505.2,316.4,-0.8,1.8,2471.337,13.28,0.039,147.5
2022-12-21T06:16:03,42.805,6.029,0.03,-0.024,0.026,99.0,104.0,101.0,13.4,1505.2,320.7,-0.8,1.8,2471.339,13.28,0.038,128.7
2022-12-21T06:19:03,42.805,6.029,0.035,-0.015,0.06,100.0,103.0,100.0,13.3,1505.2,328.7,-0.8,1.8,2471.319,13.28,0.038,113.2
2022-12-21T06:22:03,42.805,6.029,0.021,-0.018,0.057,101.0,102.0,100.0,13.4,1505.2,333.4,-0.7,1.9,2471.33,13.28,0.027,130.6
2022-12-21T06:25:03,42.805,6.029,0.013,-0.041,0.019,101.0,101.0,101.0,13.4,1505.2,328.1,-0.8,1.8,2471.29,13.28,0.043,162.4
2022-12-21T06:28:03,42.805,6.029,0.054,-0.035,0.038,99.0,102.0,101.0,13.4,1505.2,328.9,-0.8,1.8,2471.32,13.28,0.064,123.0
2022-12-21T06:31:03,42.805,6.029,0.024,-0.028,0.006,100.0,102.0,101.0,13.4,1505.2,330.8,-0.8,1.8,2471.296,13.28,0.036,139.4
2022-12-21T06:34:03,42.805,6.029,0.024,-0.04,-0.002,100.0,102.0,101.0,13.3,1505.2,327.8,-0.8,1.8,2471.351,13.28,0.046,149.0
2022-12-21T06:37:03,42.805,6.029,0.046,-0.027,0.033,100.0,102.0,100.0,13.3,1505.2,325.8,-0.7,1.8,2471.299,13.28,0.053,120.4
2022-12-21T06:40:03,42.805,6.029,0.062,-0.008,0.062,100.0,103.0,101.0,13.4,1505.2,317.9,-0.8,1.8,2471.342,13.28,0.062,97.3
2022-12-21T06:43:03,42.805,6.029,0.008,-0.034,0.007,100.0,102.0,100.0,13.4,1505.2,329.5,-0.8,1.8,2471.272,13.28,0.034,166.8
2022-12-21T06:46:03,42.805,6.029,0.044,-0.002,0.06,100.0,103.0,101.0,13.4,1505.2,319.0,-0.8,1.8,2471.303,13.28,0.044,92.6
2022-12-21T06:49:03,42.805,6.029,0.058,-0.039,0.042,100.0,103.0,101.0,13.3,1505.2,336.6,-0.8,1.8,2471.322,13.28,0.069,123.9
2022-12-21T06:52:03,42.805,6.029,0.053,-0.028,0.046,101.0,102.0,101.0,13.4,1505.2,322.6,-0.8,1.8,2471.298,13.28,0.059,117.9
2022-12-21T06:55:03,42.805,6.029,0.043,-0.035,0.022,101.0,101.0,102.0,13.4,1505.2,323.6,-0.7,1.8,2471.272,13.28,0.055,129.1
2022-12-21T06:58:03,42.805,6.029,0.036,-0.023,0.042,101.0,102.0,102.0,13.4,1505.2,320.2,-0.7,1.8,2471.334,13.28,0.042,122.6
2022-12-21T07:04:03,42.805,6.029,0.017,-0.035,0.027,102.0,102.0,101.0,13.4,1505.2,328.6,-0.8,1.8,2471.312,13.28,0.038,154.1
2022-12-21T07:07:03,42.805,6.029,0.077,-0.052,0.021,98.0,102.0,102.0,13.3,1505.2,330.2,-0.8,1.8,2471.328,13.28,0.092,124.0
2022-12-21T07:10:03,42.805,6.029,0.007,-0.027,0.022,100.0,104.0,101.0,13.4,1505.2,329.1,-0.8,1.8,2471.301,13.28,0.027,165.5
2022-12-21T07:13:03,42.805,6.029,0.035,-0.023,0.023,100.0,103.0,101.0,13.3,1505.2,328.7,-0.8,1.8,2471.303,13.28,0.041,123.3
2022-12-21T07:16:03,42.805,6.029,0.036,-0.082,-0.015,100.0,102.0,101.0,13.3,1505.2,334.1,-0.8,1.8,2471.302,13.28,0.089,156.3
2022-12-21T07:19:03,42.805,6.029,0.011,-0.019,0.026,100.0,104.0,99.0,13.3,1505.2,322.5,-0.8,1.8,2471.333,13.28,0.021,149.9
2022-12-21T07:22:03,42.805,6.029,0.004,-0.02,0.002,101.0,102.0,101.0,13.4,1505.2,326.5,-0.8,1.8,2471.295,13.28,0.02,168.7
2022-12-21T07:25:03,42.805,6.029,0.043,-0.036,0.037,100.0,104.0,101.0,13.4,1505.2,323.6,-0.8,1.8,2471.333,13.28,0.056,129.9
2022-12-21T07:28:03,42.805,6.029,0.031,-0.025,0.061,101.0,102.0,100.0,13.3,1505.2,327.9,-0.8,1.8,2471.286,13.28,0.039,128.9
2022-12-21T07:31:03,42.805,6.029,0.041,-0.028,-0.009,100.0,102.0,101.0,13.4,1505.2,319.8,-0.8,1.8,2471.306,13.28,0.049,124.3
2022-12-21T07:34:03,42.805,6.029,0.034,-0.046,0.014,100.0,102.0,101.0,13.3,1505.2,317.6,-0.8,1.9,2471.301,13.28,0.057,143.5
2022-12-21T07:37:03,42.805,6.029,0.055,-0.043,0.001,101.0,102.0,101.0,13.3,1505.2,321.3,-0.7,1.8,2471.294,13.28,0.069,128.0
2022-12-21T07:40:03,42.805,6.029,0.036,-0.033,0.05,100.0,102.0,101.0,13.4,1505.2,334.9,-0.8,1.8,2471.29,13.28,0.048,132.5
2022-12-21T07:43:03,42.805,6.029,0.072,-0.028,0.041,101.0,102.0,101.0,13.4,1505.2,317.5,-0.7,1.8,2471.289,13.28,0.077,111.2
2022-12-21T07:46:03,42.805,6.029,0.02,-0.022,0.05,100.0,102.0,101.0,13.4,1505.2,335.7,-0.8,1.8,2471.288,13.28,0.029,137.7
2022-12-21T07:49:03,42.805,6.029,0.033,-0.023,0.036,101.0,101.0,101.0,13.4,1505.2,322.8,-0.8,1.8,2471.285,13.28,0.04,124.9
2022-12-21T07:52:03,42.805,6.029,0.001,0.009,0.052,101.0,101.0,100.0,13.4,1505.2,320.6,-0.8,1.9,2471.261,13.28,0.009,6.3
2022-12-21T07:55:03,42.805,6.029,0.031,-0.025,0.006,101.0,107.0,101.0,13.4,1505.2,323.7,-0.8,1.9,2471.251,13.28,0.039,128.9
2022-12-21T07:58:03,42.805,6.029,0.042,-0.004,0.032,102.0,103.0,100.0,13.4,1505.2,318.0,-0.8,1.8,2471.287,13.28,0.042,95.4
2022-12-21T08:04:03,42.805,6.029,0.021,-0.018,0.044,100.0,102.0,101.0,13.4,1505.2,333.0,-0.8,1.8,2471.324,13.28,0.027,130.6
2022-12-21T08:07:03,42.805,6.029,0.04,-0.031,0.016,99.0,103.0,101.0,13.4,1505.2,321.8,-0.8,1.8,2471.326,13.28,0.05,127.8
2022-12-21T08:10:03,42.805,6.029,0.057,-0.028,0.069,99.0,103.0,101.0,13.4,1505.2,331.8,-0.8,1.8,2471.292,13.28,0.063,116.2
2022-12-21T08:13:03,42.805,6.029,0.072,-0.031,0.053,100.0,102.0,100.0,13.3,1505.2,323.9,-0.8,1.8,2471.305,13.28,0.078,113.3
2022-12-21T08:16:03,42.805,6.029,0.049,-0.042,0.052,100.0,102.0,101.0,13.4,1505.2,334.1,-0.8,1.8,2471.263,13.28,0.064,130.6
2022-12-21T08:19:03,42.805,6.029,0.026,-0.051,-0.032,100.0,103.0,101.0,13.3,1505.2,330.8,-0.7,1.8,2471.283,13.28,0.057,153.0
2022-12-21T08:22:03,42.805,6.029,0.038,-0.047,0.007,101.0,101.0,101.0,13.4,1505.2,327.3,-0.7,1.8,2471.273,13.28,0.06,141.0
2022-12-21T08:25:03,42.805,6.029,0.046,-0.03,0.043,101.0,101.0,101.0,13.3,1505.2,328.8,-0.8,1.8,2471.237,13.28,0.054,123.1
2022-12-21T08:28:03,42.805,6.029,-0.003,-0.025,0.051,101.0,102.0,100.0,13.4,1505.2,327.5,-0.8,1.8,2471.292,13.28,0.025,186.8
2022-12-21T08:31:03,42.805,6.029,0.039,-0.061,-0.011,100.0,102.0,101.0,13.4,1505.2,327.4,-0.8,1.8,2471.265,13.28,0.072,147.4
2022-12-21T08:34:03,42.805,6.029,0.061,-0.04,0.008,100.0,101.0,102.0,13.4,1505.2,329.6,-0.8,1.8,2471.245,13.28,0.072,123.3
2022-12-21T08:37:03,42.805,6.029,0.042,-0.037,0.035,101.0,102.0,100.0,13.3,1505.2,334.1,-0.8,1.8,2471.254,13.28,0.055,131.4
2022-12-21T08:40:03,42.805,6.029,0.054,-0.028,0.036,100.0,102.0,102.0,13.3,1505.2,322.1,-0.8,1.8,2471.261,13.28,0.06,117.4
2022-12-21T08:43:03,42.805,6.029,0.027,-0.024,0.021,101.0,103.0,101.0,13.3,1505.2,319.0,-0.8,1.8,2471.231,13.28,0.036,131.6
2022-12-21T08:46:03,42.805,6.029,0.05,-0.046,0.002,99.0,103.0,102.0,13.4,1505.2,323.9,-0.8,1.8,2471.256,13.28,0.067,132.6
2022-12-21T08:49:03,42.805,6.029,0.011,-0.007,0.028,100.0,102.0,100.0,13.4,1505.2,326.5,-0.7,1.8,2471.24,13.28,0.013,122.5
2022-12-21T08:52:03,42.805,6.029,0.025,-0.029,0.036,99.0,103.0,101.0,13.4,1505.2,327.9,-0.7,1.8,2471.259,13.28,0.038,139.2
2022-12-21T08:55:03,42.805,6.029,0.04,-0.044,0.032,100.0,100.0,101.0,13.4,1505.2,325.0,-0.7,1.8,2471.249,13.28,0.059,137.7
2022-12-21T08:58:03,42.805,6.029,0.066,-0.041,0.018,100.0,102.0,101.0,13.3,1505.2,317.6,-0.8,1.8,2471.217,13.28,0.077,121.8
2022-12-21T09:04:03,42.805,6.029,0.007,-0.028,-0.009,101.0,103.0,101.0,13.4,1505.2,331.1,-0.8,1.8,2471.3,13.28,0.028,166.0
2022-12-21T09:07:03,42.805,6.029,0.041,-0.031,0.029,101.0,101.0,101.0,13.4,1505.2,319.3,-0.8,1.8,2471.254,13.28,0.051,127.1
2022-12-21T09:10:03,42.805,6.029,0.07,-0.022,0.028,100.0,101.0,101.0,13.4,1505.2,322.0,-0.8,1.8,2471.264,13.28,0.073,107.4
2022-12-21T09:13:03,42.805,6.029,0.061,-0.037,0.033,100.0,101.0,101.0,13.4,1505.2,318.1,-0.8,1.8,2471.261,13.28,0.071,121.2
2022-12-21T09:16:03,42.805,6.029,0.064,-0.043,0.026,100.0,102.0,101.0,13.4,1505.2,319.7,-0.7,1.8,2471.229,13.28,0.077,123.9
2022-12-21T09:19:03,42.805,6.029,0.031,-0.046,0.03,99.0,102.0,102.0,13.3,1505.2,335.6,-0.7,1.8,2471.258,13.28,0.055,146.0
2022-12-21T09:22:03,42.805,6.029,0.041,-0.022,0.064,100.0,102.0,102.0,13.4,1505.2,323.7,-0.8,1.8,2471.265,13.28,0.046,118.2
2022-12-21T09:25:03,42.805,6.029,0.032,-0.015,0.031,101.0,101.0,101.0,13.4,1505.2,321.4,-0.7,1.8,2471.243,13.28,0.035,115.1
2022-12-21T09:28:03,42.805,6.029,0.046,-0.058,0.009,101.0,102.0,101.0,13.4,1505.2,330.1,-0.8,1.8,2471.178,13.28,0.074,141.6
2022-12-21T09:31:03,42.805,6.029,0.076,-0.098,0.019,101.0,101.0,100.0,13.3,1505.2,334.5,-0.7,1.8,2471.251,13.28,0.124,142.2
2022-12-21T09:34:03,42.805,6.029,0.049,-0.04,0.003,102.0,100.0,100.0,13.4,1505.2,325.4,-0.7,1.8,2471.223,13.28,0.063,129.2
2022-12-21T09:37:03,42.805,6.029,0.061,-0.046,0.068,100.0,102.0,101.0,13.4,1505.2,330.3,-0.8,1.9,2471.248,13.28,0.076,127.0
2022-12-21T09:40:03,42.805,6.029,0.057,-0.031,0.027,101.0,102.0,100.0,13.3,1505.2,323.9,-0.7,1.8,2471.201,13.28,0.064,118.5
2022-12-21T09:43:03,42.805,6.029,0.031,-0.013,0.051,102.0,101.0,102.0,13.4,1505.2,331.5,-0.7,1.8,2471.186,13.28,0.033,112.7
2022-12-21T09:46:03,42.805,6.029,0.045,-0.035,0.026,100.0,102.0,101.0,13.3,1505.2,336.1,-0.8,1.8,2471.243,13.28,0.057,127.9
2022-12-21T09:49:03,42.805,6.029,0.042,-0.025,0.046,101.0,102.0,101.0,13.4,1505.2,332.3,-0.8,1.8,2471.222,13.28,0.048,120.8
2022-12-21T09:52:03,42.805,6.029,0.027,-0.052,-0.001,101.0,103.0,100.0,13.3,1505.2,326.5,-0.7,1.8,2471.2,13.28,0.058,152.6
2022-12-21T09:55:03,42.805,6.029,0.037,-0.008,0.027,101.0,101.0,101.0,13.4,1505.2,323.1,-0.8,1.8,2471.239,13.28,0.037,102.2
2022-12-21T09:58:03,42.805,6.029,0.024,-0.016,0.037,101.0,103.0,101.0,13.4,1505.2,322.3,-0.8,1.8,2471.214,13.28,0.028,123.7